Zurück zum Katalog

COSMOS 1161

AktivNavigationLEO
NORAD 11696·PAYLOAD·🇷🇺 Russia

Gestartet Feb 11, 1980 von Plesetsk Cosmodrome

Loading…

Nächste Überflüge (nächste 24 Stunden)

TLE

AktuellSource: Space-Track

Epoche: Sep 14, 2026, 20:02 UTC

1 11696U 80012F   26257.83491378 -.00000025  00000-0 -63959-4 0  9994
2 11696  74.0213  45.0042 0021544  96.3386 264.0117 12.45173750117777

Verfolge COSMOS 1161 in Echtzeit mit AllMySat

Download on the App Store